Tracking 17632 objects as of 1-May-2016
HD Live streaming from Space Station
objects crossing your sky now

SL-3 R/B

Track SL-3 R/B now!
10-day predictions
SL-3 R/B is classified as:


NORAD ID: 11849
Int'l Code: 1980-051B
Perigee: 245.8 km
Apogee: 255.4 km
Inclination: 97.7 °
Period: 89.4 minutes
Semi major axis: 6621 km
RCS: 5.692 m2 (large)
Launch date: June 18, 1980
Source: Commonwealth of Independent States (former USSR) (CIS)
Launch site: TYURATAM MISSILE AND SPACE COMPLEX (TTMTR)

Note: This is a ROCKET BODY
Your satellite tracking list
Your tracking list is empty





NASA's NSSDC Master Catalog

Two Line Element Set (TLE):
1 11849U 80051B   16122.87801112  .00521901  14522-3  51835-3 0  9997
2 11849  97.6968  77.6170 0007250 166.2026 193.9457 16.11223640974087
Source of the keplerian elements: AFSPC

N2YO: 478